Regional Weather Roundup
Issued by NWS State College, PA

Home | Current Version | Previous Version | Text Only | Print | Product List | Glossary Off
Versions: 1 2 3 4 5 6 7 8 9 10 11 12 13 14 15 16 17 18 19 20 21 22 23 24 25 26 27 28 29 30 31 32 33 34 35 36 37 38 39 40 41 42 43 44 45 46 47 48 49 50

000
ASUS41 KCTP 281003
RWRCTP

REGIONAL WEATHER ROUNDUP
NATIONAL WEATHER SERVICE STATE COLLEGE PA
600 AM EDT MON JUL 28 2014

Note: "fair" indicates few or no clouds below 12,000 feet with no
significant weather and/or obstructions to visibility.

* = STATION THAT DOES NOT REPORT PRECIPITATION /E.G. RAIN...SNOW...ETC/
    THUNDER OR FOG.

PAZ002>004-007>009-013>016-020>023-029>032-281100-
WESTERN PENNSYLVANIA

CITY           SKY/WX    TMP DP  RH WIND       PRES   REMARKS
ERIE           RAIN      66  61  82 NW12G18   29.62R
MEADVILLE      CLOUDY    61  59  93 W10       29.66R
FRANKLIN*      CLOUDY    59  55  88 W10       29.67S
NEW CASTLE       N/A     62  60  93 VRB5      29.69R
BEAVER COUNTY  NOT AVBL
BUTLER*        CLOUDY    63  59  88 W9        29.69R
PITTSBURGH INT CLOUDY    63  61  93 W10       29.69R
PITTSBURGH     CLOUDY    63  59  87 W10G17    29.68R
INDIANA*       CLOUDY    63  61  94 NW13G20   29.70R
LATROBE        CLOUDY    64  63  94 W12       29.69R
WASHINGTON CO* CLOUDY    64  61  88 W8        29.72R
$$

PAZ004>006-010>012-017>019-024>028-033>037-041-042-045-046-049>053-281100-
CENTRAL PENNSYLVANIA

CITY           SKY/WX    TMP DP  RH WIND       PRES   REMARKS
BRADFORD       LGT RAIN  61  59  93 W7        29.62R
DUBOIS         CLOUDY    61  59  93 W10       29.63R FOG
CLEARFIELD     CLOUDY    62  61  96 SW6       29.63R
JOHNSTOWN      CLOUDY    61  59  93 W18G28    29.67R
ALTOONA        MOCLDY    67  63  87 W8        29.63R
STATE COLLEGE  CLOUDY    63  63 100 CALM      29.60R FOG
WILLIAMSPORT   CLOUDY    66  63  90 CALM      29.54F
SELINSGROVE    MOCLDY    65  63  93 CALM      29.57R
FT INDIANTOWN  CLOUDY    65  65 100 SW1       29.57R
CAPITAL CITY   PTCLDY    63  62  97 S3        29.57R FOG
HARRISBURG     PTCLDY    66  64  93 S7        29.56R
YORK           PTCLDY    66  65  96 CALM      29.57R
$$

PAZ038>040-043-044-047-048-054-055-060>062-067>071-281100-
EASTERN PENNSYLVANIA

CITY           SKY/WX    TMP DP  RH WIND       PRES   REMARKS
SCRANTON       CLOUDY    65  62  90 CALM      29.54F
MOUNT POCONO   CLOUDY    63  61  93 W5        29.59R
ALLENTOWN      CLOUDY    68  65  90 W6        29.56S
QUAKERTOWN*    PTSUNNY   66  66 100 CALM      29.57S
READING        CLOUDY    68  65  90 CALM      29.54F
LANCASTER      CLOUDY    66  65  96 SW5       29.57S FOG
COATESVILLE    MOSUNNY   66  66 100 W5        29.58S
POTTSTOWN      PTCLDY    66  65  96 W3        29.58R
BLUE BELL      MOCLDY    70  68  94 CALM      29.55R
DOYLESTOWN     MOCLDY    67  67 100 VRB3      29.56R
WILLOW GROVE   NOT AVBL
NORTH PHILA    PTCLDY    70  65  84 SW7       29.57R
PHILADELPHIA   MOCLDY    70  66  87 S6        29.56S
$$


USA.gov is the U.S. government's official web portal to all federal, state and local government web resources and services.